| time (UTC) | temp C | wind direction | speed KPH | gust KPH | rain 1hr cm | rain 24hr cm | rain mn cm | humidity % | barometer mb |
| 20260507023042 | 3 | 196 | 0.0 | 0.0 | 0.00 | 0.00 | 0.00 | 90 | 1013.3 |
| 20260507021550 | 3 | 196 | 0.0 | 0.0 | 0.00 | 0.00 | 0.00 | 89 | 1013.2 |
| 20260507020053 | 3 | 196 | 0.0 | 0.0 | 0.00 | 0.00 | 0.00 | 89 | 1013.2 |
| 20260507014550 | 3 | 196 | 0.0 | 0.0 | 0.00 | 0.00 | 0.00 | 89 | 1013.2 |
| 20260507013042 | 3 | 196 | 0.0 | 0.0 | 0.00 | 0.00 | 0.00 | 88 | 1013.1 |
| 20260507011544 | 3 | 196 | 0.0 | 0.0 | 0.00 | 0.00 | 0.00 | 88 | 1013.1 |
| 20260507010041 | 4 | 196 | 0.0 | 0.0 | 0.00 | 0.00 | 0.00 | 87 | 1013.0 |
| 20260507004533 | 4 | 196 | 0.0 | 0.0 | 0.00 | 0.00 | 0.00 | 87 | 1013.0 |
| 20260507003030 | 5 | 196 | 0.0 | 0.0 | 0.00 | 0.00 | 0.00 | 87 | 1013.0 |
| 20260507001534 | 5 | 196 | 0.0 | 0.0 | 0.00 | 0.00 | 0.00 | 86 | 1013.0 |
| 20260507000028 | 5 | 196 | 0.0 | 0.0 | 0.00 | 0.00 | 0.00 | 86 | 1012.9 |
| 20260506234526 | 5 | 196 | 0.0 | 0.0 | 0.00 | 0.00 | 0.00 | 85 | 1012.8 |
| 20260506233025 | 5 | 196 | 0.0 | 0.0 | 0.00 | 0.00 | 0.00 | 85 | 1012.8 |
| 20260506231523 | 5 | 196 | 0.0 | 0.0 | 0.00 | 0.00 | 0.00 | 84 | 1012.8 |
| 20260506230023 | 5 | 196 | 0.0 | 0.0 | 0.00 | 0.00 | 0.00 | 84 | 1012.7 |
| 20260506224521 | 6 | 196 | 0.0 | 0.0 | 0.00 | 0.00 | 0.00 | 83 | 1012.7 |
| 20260506223020 | 6 | 196 | 0.0 | 0.0 | 0.00 | 0.00 | 0.00 | 83 | 1012.6 |
| 20260506221517 | 6 | 196 | 0.0 | 0.0 | 0.00 | 0.00 | 0.00 | 82 | 1012.5 |
| 20260506220015 | 6 | 196 | 0.0 | 0.0 | 0.00 | 0.00 | 0.00 | 81 | 1012.6 |
| 20260506214515 | 6 | 196 | 0.0 | 0.0 | 0.00 | 0.00 | 0.00 | 80 | 1012.5 |
| 20260506213014 | 6 | 196 | 0.0 | 0.0 | 0.00 | 0.00 | 0.00 | 80 | 1012.4 |
| 20260506211519 | 6 | 196 | 0.0 | 0.0 | 0.00 | 0.00 | 0.00 | 79 | 1012.4 |
| 20260506210016 | 7 | 196 | 0.0 | 0.0 | 0.00 | 0.00 | 0.00 | 77 | 1012.3 |
| 20260506204510 | 7 | 196 | 0.0 | 0.0 | 0.00 | 0.00 | 0.00 | 75 | 1012.1 |
| 20260506203009 | 8 | 196 | 0.0 | 0.0 | 0.00 | 0.00 | 0.00 | 74 | 1012.1 |
| 20260506201509 | 8 | 196 | 0.0 | 0.0 | 0.00 | 0.00 | 0.00 | 72 | 1011.9 |
| 20260506200006 | 8 | 190 | 0.0 | 0.0 | 0.00 | 0.00 | 0.00 | 70 | 1011.8 |
| 20260506194506 | 9 | 190 | 0.0 | 0.0 | 0.00 | 0.00 | 0.00 | 68 | 1011.7 |
| 20260506193005 | 9 | 190 | 0.0 | 0.0 | 0.00 | 0.00 | 0.00 | 65 | 1011.7 |
| 20260506191504 | 10 | 190 | 0.0 | 0.0 | 0.00 | 0.00 | 0.00 | 63 | 1011.6 |
| 20260506190001 | 10 | 254 | 0.0 | 0.0 | 0.00 | 0.00 | 0.00 | 59 | 1011.3 |
| 20260506184600 | 11 | 256 | 0.0 | 0.0 | 0.00 | 0.00 | 0.00 | 57 | 1011.2 |
| 20260506183100 | 11 | 256 | 0.0 | 0.0 | 0.00 | 0.00 | 0.00 | 55 | 1011.1 |
| 20260506181559 | 12 | 256 | 0.0 | 0.0 | 0.00 | 0.00 | 0.00 | 54 | 1010.8 |
| 20260506180057 | 12 | 256 | 0.0 | 0.0 | 0.00 | 0.00 | 0.00 | 53 | 1010.6 |
| 20260506174558 | 12 | 256 | 0.0 | 0.0 | 0.00 | 0.00 | 0.00 | 54 | 1010.5 |
| 20260506173127 | 12 | 348 | 0.0 | 0.0 | 0.00 | 0.00 | 0.00 | 61 | 1010.5 |
| 20260506171605 | 13 | 348 | 0.0 | 0.0 | 0.00 | 0.00 | 0.00 | 57 | 1010.4 |
| 20260506170055 | 13 | 346 | 0.0 | 0.0 | 0.00 | 0.00 | 0.00 | 56 | 1010.3 |
| 20260506164601 | 13 | 32 | 0.0 | 0.0 | 0.00 | 0.00 | 0.00 | 59 | 1010.4 |
| 20260506163105 | 12 | 32 | 0.0 | 0.0 | 0.00 | 0.00 | 0.00 | 61 | 1010.4 |
| 20260506161629 | 13 | 72 | 0.0 | 0.0 | 0.00 | 0.00 | 0.00 | 60 | 1010.3 |
| 20260506160101 | 13 | 60 | 0.0 | 0.0 | 0.00 | 0.00 | 0.00 | 59 | 1010.1 |
| 20260506154555 | 13 | 327 | 0.0 | 0.0 | 0.00 | 0.00 | 0.00 | 57 | 1010.2 |
| 20260506153057 | 13 | 343 | 1.6 | 0.0 | 0.00 | 0.00 | 0.00 | 57 | 1010.0 |
| 20260506151552 | 13 | 360 | 1.6 | 0.0 | 0.00 | 0.00 | 0.00 | 57 | 1010.0 |
| 20260506150052 | 13 | 336 | 1.6 | 0.0 | 0.00 | 0.00 | 0.00 | 56 | 1010.1 |
| 20260506144552 | 13 | 324 | 1.6 | 0.0 | 0.00 | 0.00 | 0.00 | 56 | 1010.1 |
| 20260506143052 | 13 | 17 | 1.6 | 0.0 | 0.00 | 0.00 | 0.00 | 57 | 1010.1 |
| 20260506141551 | 13 | 34 | 0.0 | 0.0 | 0.00 | 0.00 | 0.00 | 56 | 1010.2 |
| 20260506140051 | 13 | 360 | 0.0 | 0.0 | 0.00 | 0.00 | 0.00 | 57 | 1010.2 |
| 20260506134550 | 13 | 355 | 1.6 | 0.0 | 0.00 | 0.00 | 0.00 | 57 | 1010.0 |
| 20260506133050 | 13 | 18 | 3.2 | 0.0 | 0.00 | 0.00 | 0.00 | 58 | 1009.9 |
| 20260506131554 | 13 | 49 | 4.8 | 0.0 | 0.00 | 0.00 | 0.00 | 59 | 1009.9 |
| 20260506124556 | 13 | 32 | 3.2 | 0.0 | 0.00 | 0.00 | 0.00 | 61 | 1009.7 |
| 20260506123048 | 13 | 41 | 3.2 | 0.0 | 0.00 | 0.00 | 0.00 | 59 | 1009.8 |
| 20260506121548 | 13 | 342 | 3.2 | 0.0 | 0.00 | 0.00 | 0.00 | 59 | 1009.8 |
| 20260506120047 | 13 | 33 | 1.6 | 0.0 | 0.00 | 0.00 | 0.00 | 58 | 1009.8 |
| 20260506114546 | 13 | 18 | 3.2 | 0.0 | 0.00 | 0.00 | 0.00 | 57 | 1010.0 |
| 20260506113053 | 13 | 19 | 1.6 | 0.0 | 0.00 | 0.00 | 0.00 | 57 | 1009.9 |
| 20260506111544 | 13 | 9 | 1.6 | 0.0 | 0.00 | 0.00 | 0.00 | 58 | 1009.9 |
| 20260506110052 | 13 | 9 | 0.0 | 0.0 | 0.00 | 0.00 | 0.00 | 62 | 1010.0 |
| 20260506104548 | 12 | 14 | 1.6 | 0.0 | 0.00 | 0.00 | 0.00 | 63 | 1010.0 |
| 20260506103048 | 13 | 13 | 0.0 | 0.0 | 0.00 | 0.00 | 0.00 | 60 | 1010.2 |
| 20260506101550 | 12 | 11 | 1.6 | 0.0 | 0.00 | 0.00 | 0.00 | 63 | 1010.1 |
| 20260506100057 | 12 | 44 | 1.6 | 0.0 | 0.00 | 0.00 | 0.00 | 62 | 1010.1 |
| 20260506094536 | 12 | 19 | 1.6 | 0.0 | 0.00 | 0.00 | 0.00 | 62 | 1010.1 |
| 20260506093042 | 11 | 11 | 1.6 | 0.0 | 0.00 | 0.00 | 0.00 | 62 | 1010.1 |
| 20260506091537 | 11 | 19 | 1.6 | 0.0 | 0.00 | 0.00 | 0.00 | 62 | 1010.2 |
| 20260506090033 | 11 | 36 | 3.2 | 0.0 | 0.00 | 0.00 | 0.00 | 58 | 1010.1 |
| 20260506084540 | 12 | 18 | 1.6 | 0.0 | 0.00 | 0.00 | 0.00 | 60 | 1010.1 |
| 20260506083033 | 12 | 5 | 1.6 | 0.0 | 0.00 | 0.00 | 0.00 | 58 | 1009.9 |
| 20260506081540 | 12 | 11 | 1.6 | 0.0 | 0.00 | 0.00 | 0.00 | 58 | 1009.7 |
| 20260506073038 | 11 | 43 | 0.0 | 0.0 | 0.00 | 0.00 | 0.00 | 47 | 1009.8 |
| 20260506071525 | 11 | 44 | 0.0 | 0.0 | 0.00 | 0.00 | 0.00 | 50 | 1009.8 |
| 20260506061514 | 10 | 24 | 0.0 | 0.0 | 0.00 | 0.00 | 0.00 | 53 | 1010.0 |
| 20260506044703 | 5 | 317 | 0.0 | 0.0 | 0.00 | 0.00 | 0.00 | 69 | 1010.3 |
| 20260506043107 | 5 | 302 | 0.0 | 0.0 | 0.00 | 0.00 | 0.00 | 70 | 1010.2 |
| 20260506041603 | 4 | 340 | 0.0 | 0.0 | 0.00 | 0.00 | 0.00 | 72 | 1010.3 |
| 20260506040055 | 4 | 340 | 0.0 | 0.0 | 0.00 | 0.00 | 0.00 | 70 | 1010.2 |
| 20260506034625 | 3 | 9 | 0.0 | 0.0 | 0.00 | 0.00 | 0.00 | 70 | 1010.2 |
| 20260506033101 | 3 | 9 | 0.0 | 0.0 | 0.00 | 0.00 | 0.00 | 71 | 1010.3 |
| 20260506031553 | 3 | 9 | 0.0 | 0.0 | 0.00 | 0.00 | 0.00 | 70 | 1010.3 |
| 20260506030052 | 3 | 9 | 0.0 | 0.0 | 0.00 | 0.00 | 0.00 | 70 | 1010.5 |
| 20260506024551 | 4 | 9 | 0.0 | 0.0 | 0.00 | 0.00 | 0.00 | 70 | 1010.5 |